008  
ASUS41 KPHI 211410  
RWRPHI  
 
REGIONAL WEATHER ROUNDUP  
NATIONAL WEATHER SERVICE MOUNT HOLLY NJ  
1000 AM EDT TUE MAY 21 2024  
 
NOTE: "FAIR" INDICATES FEW OR NO CLOUDS BELOW 12,000 FEET WITH NO  
SIGNIFICANT WEATHER AND/OR S TO VISIBILITY
.  
 
* = STATION DOES NOT REPORT PRECIPITATION (E.G. RAIN, SNOW, ETC.)  
OR FOG.
 
 
NJZ015>026-211500-  
SOUTHERN NEW JERSEY  
 
CITY SKY/WX TMP DP RH WIND PRES REMARKS
 
POMONA SUNNY 69 58 67 VRB5 30.05F  
WILDWOOD* MOSUNNY 66 59 78 CALM 30.07S  
MILLVILLE SUNNY 69 59 70 VRB5 30.05F  
WRIGHTSTOWN SUNNY 65 59 83 W7 30.03F  
LAKEHURST SUNNY 71 60 68 W5 30.02F  
MOUNT HOLLY MOSUNNY 68 61 78 VRB3 30.04F  
TRENTON SUNNY 69 63 81 VRB5 30.02F  
 

 
NJZ001>014-211500-  
NORTHERN NEW JERSEY  
 
CITY SKY/WX TMP DP RH WIND PRES REMARKS
 
SUSSEX MOSUNNY 71 64 78 VRB7 30.00F  
ANDOVER* N/A 71 63 75 VRB3 30.01F  
MORRISTOWN MOSUNNY 68 64 88 SW3 30.02F  
NEWARK PTSUNNY 71 60 68 SW5 30.01F  
TETERBORO SUNNY 70 60 70 VRB5 30.00F  
CALDWELL MOSUNNY 67 58 72 W6 30.02F  
SOMERVILLE CLOUDY 65 61 87 VRB3 30.01F  
ALLAIRE* SUNNY 73 62 68 SW8 30.04F  
TOMS RIVER* SUNNY 73 62 68 W7 30.05F  
 

 
PAZ043-044-047-054-055-060>062-066>071-211500-  
EASTERN PENNSYLVANIA  
 
CITY SKY/WX TMP DP RH WIND PRES REMARKS
 
PHILADELPHIA MOSUNNY 68 61 78 SW6 30.04F  
NORTH PHILA SUNNY 72 61 68 MISG 30.04F  
BLUE BELL* SUNNY 70 62 75 SW5 30.04F  
DOYLESTOWN N/A 72 64 76 SW7 30.02F  
QUAKERTOWN* SUNNY 72 66 83 VRB3 30.03F  
PERKASIE* SUNNY 68 68 100 VRB5 30.03F  
POTTSTOWN SUNNY 72 63 73 CALM 30.03F  
LANCASTER SUNNY 74 65 73 VRB3 30.01F  
COATESVILLE SUNNY 70 70 100 VRB5 30.04F  
WEST CHESTER PTSUNNY 68 63 83 SW5 30.04F  
READING SUNNY 75 63 66 CALM 30.00F  
ALLENTOWN SUNNY 73 62 68 CALM 30.00F  
QN CITY/ALNTWN SUNNY 73 63 68 SW7 30.02F  
MOUNT POCONO MOSUNNY 73 59 61 W8 30.04F  
HAZLETON SUNNY 73 59 60 CALM 30.06F  
LEHIGHTON SUNNY 72 63 73 CALM 30.02F  
WILKES BARRE MOSUNNY 75 60 59 SW8 30.01F  
 

 
DEZALL-MDZ008-012-015-019-020-211500-  
DELAWARE AND EASTERN MARYLAND  
 
CITY SKY/WX TMP DP RH WIND PRES REMARKS
 
WILMINGTON CLOUDY 63 62 97 SW6 30.05F FOG  
DOVER CLOUDY 64 61 88 W6 30.04S  
GEORGETOWN MOSUNNY 64 58 80 SW5 30.06F  
EASTON MOSUNNY 68 63 83 SW3 30.06S  
STEVENSVILLE SUNNY 72 68 87 S9 30.05S  
PATUXENT MOSUNNY 70 63 78 SE7 30.05F  
OCEAN CITY MOSUNNY 63 58 83 SE5 30.07S  
WALLOPS ISLAND MOSUNNY 67 62 84 VRB3 30.07S  
CAMBRIDGE PTSUNNY 66 66 100 VRB3 30.06F  
SALISBURY MOSUNNY 65 59 81 VRB3 30.07S  
 

 
PAZ001-021-NYZ056-072-MDZ011-DCZ001-211500-  
OTHER NEARBY LOCATIONS  
 
CITY SKY/WX TMP DP RH WIND PRES REMARKS
 
HARRISBURG MOSUNNY 72 65 78 SE6 30.01F  
STATE COLLEGE SUNNY 73 59 60 SW7 30.02R  
WILLIAMSPORT SUNNY 70 63 78 VRB3 29.99F  
BINGHAMTON PTSUNNY 72 60 66 SW7 30.00S  
NEW YORK CITY SUNNY 68 58 70 VRB3 30.04F  
BALTIMORE MOSUNNY 73 64 73 S5 30.02F  
WASHINGTON DC MOSUNNY 72 64 76 S9 30.03F  
 

 
 
 
CLICK HERE TO GO TO PREVIOUS BULLETINS.

The Nexlab PA Page
The Nexlab NJ Page
The Nexlab DE Page
The Nexlab MD Page Main Text Page